sat.trackr.live / text

‹ back to catalog

STARLINK-6160

NORAD 56382 · 2023-061J

PAYLOAD ACTIVE UNKNOWN

§ Identity

Operator
Country
US
Launch date
2023-05-04
Launch site
AFETR
Launch vehicle
Mass (kg)
RCS (m²)

Purposes: comms

External: N2YO · Heavens-Above · Gunter

§ Orbital elements

Epoch: 2026-09-20T03:03:40.555008Z

Period
94.27 min
Inclination
43.0031°
Eccentricity
0.0000875
Mean motion
15.27578657 rev/d
Perigee alt
482.5 km
Apogee alt
483.7 km
Semi-major
6,861.2 km
B*
1.0492e-5
RAAN
180.0501°
Arg perigee
247.4526°
Mean anomaly
112.6233°
Rev number
18,648

§ Raw data

STARLINK-61601 56382U 23061J   26263.12755272  .00000027  00000+0  10492-4 0  99942 56382  43.0031 180.0501 0000875 247.4526 112.6233 15.27578657186480

JSON: /api/v1/satellites/56382 · /tle

For live sub-satellite position, see the globe view (requires WebGL).

§ Visibility from observer

Set your observer location to see the next 7 days of passes ≥ 10°. The values pass through the URL so the page stays shareable.

No JS? Fill the form by hand. The geolocation button needs JavaScript.